Location: Blangy-Tronville
(49.8790°N, 2.4226°E)
Time: 02:01:27
(UTC+00:00)

Resurs 01 Rocket - Pass Details

Date: 18 November 2025
Orbit: 627 x 636 km, 97.7° (Epoch: 04 December)

Event Time Altitude Azimuth Distance (km) Brightness Sun altitude
Exits shadow 19:07:32 23° 338° (NNW) 1,378 3.5 -29.4°
Drops below altitude 10° 19:09:13 10° 343° (NNW) 2,035 4.4 -29.7°
Sets 19:11:26 0° 345° (NNW) 2,948 5.3 -30.1°
